Weather History for PAOM - December, 2013

Change the Weather History Date:

Tuesday, December 10, 2013

  Actual Average Record
Temperature  
Mean Temperature 21 °F 11 °F  
Max Temperature 24 °F 18 °F 39 °F (1985)
Min Temperature 17 °F - -40 °F (1975)
Degree Days  
Heating Degree Days 44 54  
Month to date heating degree days 385 534  
Since 1 July heating degree days 4187 4632  
Cooling Degree Days 0    
Month to date cooling degree days 0  
Year to date cooling degree days 7  
Moisture  
Dew Point 13 °F    
Average Humidity 0    
Maximum Humidity 0    
Minimum Humidity 0    
Precipitation  
Precipitation 0.00 in 0.04 in 0.94 in (1932)
Month to date precipitation 1.43 0.34  
Year to date precipitation 21.75 16.07  
Snow  
Snow 0.00 in 0.40 in 4.50 in (2011)
Month to date snowfall 5.6 4.2  
Since 1 July snowfall 20.2 21.5  
Snow Depth 2.00 in    
Sea Level Pressure  
Sea Level Pressure 30.36 in    
Wind  
Wind Speed 11 mph (NNE)    
Max Wind Speed 23 mph    
Max Gust Speed 29 mph    
Visibility 10 miles    
Events Snow    
T = Trace of Precipitation, MM = Missing Value Source: NWS Daily Summary

Daily Weather History Graph

Daily Weather History Graph

Search for Another Location

Airport or City:

Trip Planner

Search our weather history database for the weather conditions in past years. The results will help you decide how hot, cold, wet, or windy it might be!

Date:

Astronomy

Dec. 10, 2013 Rise Set
Actual Time 11:48 AM AKST 4:00 PM AKST
Civil Twilight 10:29 AM AKST 5:19 PM AKST
Nautical Twilight 9:20 AM AKST 6:29 PM AKST
Astronomical Twilight 8:19 AM AKST 7:29 PM AKST
Moon 2:20 PM AKST (12/10) 2:58 AM AKST (12/10)
Length of Visible Light 6h 50m
Length of Day
4h 11m
Waxing Gibbous, 63% of the Moon is Illuminated
Dec 10
Waxing Gibbous
Dec 17
Full
Dec 25
Last Quarter
Jan 1
New
Jan 7
First Quarter

Hourly Weather History & Observations

Time (AKST) Temp. Windchill Dew Point Humidity Pressure Visibility Wind Dir Wind Speed Gust Speed Precip Events Conditions
12:53 AM 18.0 °F 12.7 °F 15.1 °F 88% 30.34 in 10.0 mi ESE 3.5 mph - N/A   Scattered Clouds
1:53 AM 21.0 °F 12.4 °F 17.1 °F 85% 30.35 in 10.0 mi NNW 6.9 mph - N/A   Clear
2:53 AM 18.0 °F 12.7 °F 15.1 °F 88% 30.37 in 10.0 mi Variable 3.5 mph - N/A   Clear
3:53 AM 19.0 °F 8.2 °F 14.0 °F 81% 30.35 in 10.0 mi NE 9.2 mph - N/A   Clear
4:53 AM 19.9 °F 9.3 °F 16.0 °F 85% 30.35 in 10.0 mi North 9.2 mph - N/A   Clear
5:53 AM 19.0 °F 9.0 °F 15.1 °F 85% 30.36 in 10.0 mi North 8.1 mph - N/A   Clear
6:53 AM 19.0 °F - 15.1 °F 85% 30.37 in 10.0 mi Calm Calm - N/A   Clear
7:53 AM 19.9 °F 8.6 °F 15.1 °F 81% 30.35 in 10.0 mi NNE 10.4 mph - N/A   Clear
8:53 AM 19.9 °F 9.3 °F 15.1 °F 81% 30.36 in 10.0 mi NNE 9.2 mph - N/A   Clear
9:53 AM 19.0 °F 13.9 °F 12.9 °F 77% 30.35 in 10.0 mi NNE 3.5 mph - N/A   Clear
10:53 AM 21.0 °F 10.6 °F 12.9 °F 71% 30.35 in 10.0 mi NNE 9.2 mph - N/A   Clear
11:53 AM 21.9 °F 9.8 °F 12.9 °F 68% 30.36 in 10.0 mi NE 12.7 mph - N/A   Partly Cloudy
12:53 PM 23.0 °F 10.6 °F 12.0 °F 63% 30.36 in 10.0 mi NNE 13.8 mph - N/A   Scattered Clouds
1:53 PM 24.1 °F 10.1 °F 12.0 °F 60% 30.36 in 10.0 mi NNE 18.4 mph - N/A   Scattered Clouds
2:53 PM 21.9 °F 8.7 °F 12.0 °F 66% 30.37 in 10.0 mi NE 15.0 mph - N/A   Scattered Clouds
3:53 PM 21.9 °F 11.0 °F 12.0 °F 66% 30.37 in 10.0 mi NE 10.4 mph - N/A   Scattered Clouds
4:53 PM 21.9 °F 7.8 °F 12.0 °F 66% 30.36 in 10.0 mi NE 17.3 mph - N/A   Scattered Clouds
5:53 PM 21.9 °F 9.8 °F 12.0 °F 66% 30.38 in 10.0 mi NE 12.7 mph - N/A   Scattered Clouds
6:53 PM 19.9 °F 6.2 °F 10.9 °F 68% 30.38 in 10.0 mi NNE 15.0 mph - N/A   Scattered Clouds
7:53 PM 21.0 °F 5.7 °F 10.9 °F 65% 30.37 in 10.0 mi NNE 19.6 mph - N/A   Scattered Clouds
8:53 PM 21.0 °F 6.6 °F 10.0 °F 63% 30.37 in 10.0 mi NE 17.3 mph 26.5 mph N/A Snow Low Drifting Snow
9:53 PM 21.0 °F 8.6 °F 9.0 °F 60% 30.39 in 10.0 mi NE 12.7 mph - N/A Snow Low Drifting Snow
10:53 PM 19.0 °F 5.6 °F 9.0 °F 65% 30.38 in 10.0 mi NNE 13.8 mph - N/A   Scattered Clouds
11:53 PM 19.0 °F 4.0 °F 7.0 °F 59% 30.38 in 10.0 mi NE 17.3 mph 25.3 mph N/A Snow Low Drifting Snow